Time,TemperatureF,DewpointF,PressureIn,WindDirection,WindDirectionDegrees,WindSpeedMPH,WindSpeedGustMPH,Humidity,HourlyPrecipIn,Conditions,Clouds,dailyrainin,SoftwareType,DateUTC
2015-08-28 00:00:00,72.2,71.9,30.05,SSE,157,2.3,2.3,99,0.00,RA,,0.00,WeatherDisplay:10.37,2015-08-28 04:00:00,
2015-08-28 00:05:00,72.2,71.9,30.05,SSE,157,0.0,0.0,99,0.00,RA,,0.00,WeatherDisplay:10.37,2015-08-28 04:05:00,
2015-08-28 00:10:00,72.1,71.8,30.05,SSE,157,0.0,0.0,99,0.00,CLR,,0.00,WeatherDisplay:10.37,2015-08-28 04:10:00,
2015-08-28 00:15:00,72.3,72.0,30.05,SE,126,2.3,2.3,99,0.00,CLR,,0.00,WeatherDisplay:10.37,2015-08-28 04:15:00,
2015-08-28 00:20:00,72.4,72.1,30.05,East,90,0.0,0.0,99,0.00,CLR,,0.00,WeatherDisplay:10.37,2015-08-28 04:20:00,
2015-08-28 00:25:00,72.4,72.1,30.05,East,90,2.3,2.3,99,0.00,CLR,,0.00,WeatherDisplay:10.37,2015-08-28 04:25:00,
2015-08-28 00:30:00,72.4,72.1,30.05,East,90,0.0,0.0,99,0.00,CLR,,0.00,WeatherDisplay:10.37,2015-08-28 04:30:00,
2015-08-28 00:35:00,72.2,71.9,30.05,East,90,0.0,0.0,99,0.00,CLR,,0.00,WeatherDisplay:10.37,2015-08-28 04:35:00,
2015-08-28 00:40:00,72.1,71.8,30.05,East,90,0.0,0.0,99,0.00,CLR,,0.00,WeatherDisplay:10.37,2015-08-28 04:40:00,
2015-08-28 00:45:00,72.0,71.7,30.05,East,90,0.0,0.0,99,0.00,CLR,,0.00,WeatherDisplay:10.37,2015-08-28 04:45:00,
2015-08-28 00:50:00,71.8,71.5,30.05,East,90,0.0,0.0,99,0.00,CLR,,0.00,WeatherDisplay:10.37,2015-08-28 04:50:00,
2015-08-28 00:55:00,71.6,71.3,30.04,East,90,0.0,0.0,99,0.00,CLR,,0.00,WeatherDisplay:10.37,2015-08-28 04:55:00,
2015-08-28 01:00:00,71.4,71.1,30.04,East,90,0.0,0.0,99,0.00,CLR,,0.00,WeatherDisplay:10.37,2015-08-28 05:00:00,
2015-08-28 01:05:00,71.5,71.2,30.05,East,90,0.0,0.0,99,0.00,CLR,,0.00,WeatherDisplay:10.37,2015-08-28 05:05:00,
2015-08-28 01:10:00,71.6,71.3,30.04,East,90,0.0,0.0,99,0.00,CLR,,0.00,WeatherDisplay:10.37,2015-08-28 05:10:00,
2015-08-28 01:15:00,71.6,71.3,30.04,East,90,0.0,0.0,99,0.00,CLR,,0.00,WeatherDisplay:10.37,2015-08-28 05:15:00,
2015-08-28 01:20:00,71.6,71.3,30.05,East,90,0.0,0.0,99,0.00,CLR,,0.00,WeatherDisplay:10.37,2015-08-28 05:20:00,
2015-08-28 01:25:00,71.7,71.4,30.04,East,90,0.0,0.0,99,0.00,CLR,,0.00,WeatherDisplay:10.37,2015-08-28 05:25:00,
2015-08-28 01:30:00,71.7,71.4,30.04,East,87,2.0,2.0,99,0.00,CLR,,0.00,WeatherDisplay:10.37,2015-08-28 05:30:00,
2015-08-28 01:35:00,71.6,71.3,30.04,NE,44,1.2,0.0,99,0.00,CLR,,0.00,WeatherDisplay:10.37,2015-08-28 05:35:00,
2015-08-28 01:40:00,71.3,71.0,30.04,NNE,22,0.0,0.0,99,0.00,CLR,,0.00,WeatherDisplay:10.37,2015-08-28 05:40:00,
2015-08-28 01:45:00,71.1,70.8,30.04,NNE,22,2.3,2.3,99,0.00,CLR,,0.00,WeatherDisplay:10.37,2015-08-28 05:45:00,
2015-08-28 01:50:00,71.4,71.1,30.04,North,350,2.3,2.3,99,0.00,CLR,,0.00,WeatherDisplay:10.37,2015-08-28 05:50:00,
2015-08-28 01:55:00,71.3,71.0,30.04,NNW,337,0.0,0.0,99,0.00,CLR,,0.00,WeatherDisplay:10.37,2015-08-28 05:55:00,
2015-08-28 02:00:00,71.1,70.8,30.04,NNW,337,0.0,0.0,99,0.00,CLR,,0.00,WeatherDisplay:10.37,2015-08-28 06:00:00,
2015-08-28 02:05:00,70.8,70.5,30.04,NNW,337,1.2,1.2,99,0.00,CLR,,0.00,WeatherDisplay:10.37,2015-08-28 06:05:00,
2015-08-28 02:10:00,70.8,70.5,30.04,NNW,337,0.0,0.0,99,0.00,CLR,,0.00,WeatherDisplay:10.37,2015-08-28 06:10:00,
2015-08-28 02:15:00,70.8,70.5,30.04,NNW,337,0.0,0.0,99,0.00,CLR,,0.00,WeatherDisplay:10.37,2015-08-28 06:15:00,
2015-08-28 02:20:00,70.7,70.4,30.03,NNW,337,0.0,0.0,99,0.00,CLR,,0.00,WeatherDisplay:10.37,2015-08-28 06:20:00,
2015-08-28 02:25:00,70.6,70.3,30.03,NNW,337,0.0,0.0,99,0.00,CLR,,0.00,WeatherDisplay:10.37,2015-08-28 06:25:00,
2015-08-28 02:30:00,70.6,70.3,30.03,NNW,337,0.0,0.0,99,0.00,CLR,,0.00,WeatherDisplay:10.37,2015-08-28 06:30:00,
2015-08-28 02:35:00,70.4,70.1,30.03,NNW,337,0.0,0.0,99,0.00,CLR,,0.00,WeatherDisplay:10.37,2015-08-28 06:35:00,
2015-08-28 02:40:00,70.3,70.0,30.02,NNW,337,2.3,2.3,99,0.00,CLR,,0.00,WeatherDisplay:10.37,2015-08-28 06:40:00,
2015-08-28 02:45:00,70.3,70.0,30.02,NNW,337,0.0,0.0,99,0.00,CLR,,0.00,WeatherDisplay:10.37,2015-08-28 06:45:00,
2015-08-28 02:50:00,70.5,70.2,30.02,NNW,337,0.0,0.0,99,0.00,CLR,,0.00,WeatherDisplay:10.37,2015-08-28 06:50:00,
2015-08-28 02:55:00,70.5,70.2,30.02,NNW,337,0.0,0.0,99,0.00,CLR,,0.00,WeatherDisplay:10.37,2015-08-28 06:55:00,
2015-08-28 03:00:00,70.5,70.2,30.02,NNW,337,0.0,0.0,99,0.00,CLR,,0.00,WeatherDisplay:10.37,2015-08-28 07:00:00,
2015-08-28 03:05:00,70.4,70.1,30.02,NNW,337,1.2,1.2,99,0.00,CLR,,0.00,WeatherDisplay:10.37,2015-08-28 07:05:00,
2015-08-28 03:10:00,70.3,70.0,30.02,NNW,337,0.0,0.0,99,0.00,CLR,,0.00,WeatherDisplay:10.37,2015-08-28 07:10:00,
2015-08-28 03:15:00,70.1,69.8,30.02,NNW,337,0.0,0.0,99,0.00,CLR,,0.00,WeatherDisplay:10.37,2015-08-28 07:15:00,
2015-08-28 03:20:00,69.8,69.5,30.03,NNW,337,0.0,0.0,99,0.00,CLR,,0.00,WeatherDisplay:10.37,2015-08-28 07:20:00,
2015-08-28 03:25:00,69.8,69.5,30.02,NNW,337,0.0,0.0,99,0.00,CLR,,0.00,WeatherDisplay:10.37,2015-08-28 07:25:00,
2015-08-28 03:30:00,69.8,69.5,30.02,NNW,337,0.0,0.0,99,0.00,CLR,,0.00,WeatherDisplay:10.37,2015-08-28 07:30:00,
2015-08-28 03:35:00,69.7,69.4,30.02,NNW,337,0.0,0.0,99,0.00,CLR,,0.00,WeatherDisplay:10.37,2015-08-28 07:35:00,
2015-08-28 03:40:00,69.7,69.4,30.02,NNW,337,1.2,1.2,99,0.00,CLR,,0.00,WeatherDisplay:10.37,2015-08-28 07:40:00,
2015-08-28 03:45:00,69.8,69.5,30.02,NNW,347,0.0,0.0,99,0.00,CLR,,0.00,WeatherDisplay:10.37,2015-08-28 07:45:00,
2015-08-28 03:50:00,69.8,69.5,30.01,North,359,1.2,1.2,99,0.00,CLR,,0.00,WeatherDisplay:10.37,2015-08-28 07:50:00,
2015-08-28 03:55:00,70.1,69.8,30.01,North,360,2.3,2.3,99,0.00,CLR,,0.00,WeatherDisplay:10.37,2015-08-28 07:55:00,
2015-08-28 04:00:00,70.0,69.7,30.02,North,360,1.0,1.0,99,0.00,CLR,,0.00,WeatherDisplay:10.37,2015-08-28 08:00:00,
2015-08-28 04:05:00,69.9,69.6,30.02,North,360,0.0,0.0,99,0.00,CLR,,0.00,WeatherDisplay:10.37,2015-08-28 08:05:00,
2015-08-28 04:10:00,69.8,69.5,30.01,North,360,0.0,0.0,99,0.00,CLR,,0.00,WeatherDisplay:10.37,2015-08-28 08:10:00,
2015-08-28 04:15:00,70.0,69.7,30.01,North,360,2.0,2.0,99,0.00,CLR,,0.00,WeatherDisplay:10.37,2015-08-28 08:15:00,
2015-08-28 04:21:00,70.2,69.9,30.02,North,360,2.3,2.3,99,0.00,CLR,,0.00,WeatherDisplay:10.37,2015-08-28 08:21:00,
2015-08-28 04:26:00,70.4,70.1,30.02,North,360,2.3,2.3,99,0.00,CLR,,0.00,WeatherDisplay:10.37,2015-08-28 08:26:00,
2015-08-28 04:31:00,70.4,70.1,30.02,North,360,1.0,0.0,99,0.00,CLR,,0.00,WeatherDisplay:10.37,2015-08-28 08:31:00,
2015-08-28 04:36:00,70.5,70.2,30.02,North,360,0.0,0.0,99,0.00,CLR,,0.00,WeatherDisplay:10.37,2015-08-28 08:36:00,
2015-08-28 04:41:00,70.5,70.2,30.01,North,360,0.0,0.0,99,0.00,CLR,,0.00,WeatherDisplay:10.37,2015-08-28 08:41:00,
2015-08-28 04:46:00,70.6,70.3,30.01,North,360,0.0,0.0,99,0.00,CLR,,0.00,WeatherDisplay:10.37,2015-08-28 08:46:00,
2015-08-28 04:51:00,70.5,70.2,30.02,North,360,0.0,0.0,99,0.00,CLR,,0.00,WeatherDisplay:10.37,2015-08-28 08:51:00,
2015-08-28 04:56:00,70.3,70.0,30.02,North,360,0.0,0.0,99,0.00,CLR,,0.00,WeatherDisplay:10.37,2015-08-28 08:56:00,
2015-08-28 05:01:00,70.0,69.7,30.02,North,360,0.0,0.0,99,0.00,CLR,,0.00,WeatherDisplay:10.37,2015-08-28 09:01:00,
2015-08-28 05:06:00,69.6,69.3,30.02,North,360,0.0,0.0,99,0.00,CLR,,0.00,WeatherDisplay:10.37,2015-08-28 09:06:00,
2015-08-28 05:11:00,69.4,69.1,30.02,North,360,0.0,0.0,99,0.00,CLR,,0.00,WeatherDisplay:10.37,2015-08-28 09:11:00,
2015-08-28 05:16:00,69.5,69.2,30.02,North,360,2.3,2.3,99,0.00,CLR,,0.00,WeatherDisplay:10.37,2015-08-28 09:16:00,
2015-08-28 05:21:00,69.6,69.3,30.02,North,360,2.3,2.3,99,0.00,CLR,,0.00,WeatherDisplay:10.37,2015-08-28 09:21:00,
2015-08-28 05:26:00,69.8,69.5,30.02,North,360,1.2,1.2,99,0.00,CLR,,0.00,WeatherDisplay:10.37,2015-08-28 09:26:00,
2015-08-28 05:31:00,69.8,69.5,30.02,North,360,0.0,0.0,99,0.00,CLR,,0.00,WeatherDisplay:10.37,2015-08-28 09:31:00,
2015-08-28 05:36:00,70.1,69.8,30.02,North,360,0.0,0.0,99,0.00,CLR,,0.00,WeatherDisplay:10.37,2015-08-28 09:36:00,
2015-08-28 05:41:00,70.2,69.9,30.02,North,360,0.0,0.0,99,0.00,CLR,,0.00,WeatherDisplay:10.37,2015-08-28 09:41:00,
2015-08-28 05:46:00,70.4,70.1,30.02,North,360,2.3,2.3,99,0.00,CLR,,0.00,WeatherDisplay:10.37,2015-08-28 09:46:00,
2015-08-28 05:51:00,70.4,70.1,30.02,North,360,0.0,0.0,99,0.00,CLR,,0.00,WeatherDisplay:10.37,2015-08-28 09:51:00,
2015-08-28 05:56:00,70.6,70.3,30.02,North,360,2.3,2.3,99,0.00,CLR,,0.00,WeatherDisplay:10.37,2015-08-28 09:56:00,
2015-08-28 06:01:00,70.6,70.3,30.03,North,360,0.0,0.0,99,0.00,CLR,,0.00,WeatherDisplay:10.37,2015-08-28 10:01:00,
2015-08-28 06:06:00,70.6,70.3,30.03,North,360,2.3,2.3,99,0.00,CLR,,0.00,WeatherDisplay:10.37,2015-08-28 10:06:00,
2015-08-28 06:11:00,70.6,70.3,30.03,North,360,0.0,0.0,99,0.00,CLR,,0.00,WeatherDisplay:10.37,2015-08-28 10:11:00,
2015-08-28 06:16:00,70.5,70.2,30.03,North,360,0.0,0.0,99,0.00,CLR,,0.00,WeatherDisplay:10.37,2015-08-28 10:16:00,
2015-08-28 06:21:00,70.5,70.2,30.04,North,360,0.0,0.0,99,0.00,CLR,,0.00,WeatherDisplay:10.37,2015-08-28 10:21:00,
2015-08-28 06:26:00,70.5,70.2,30.03,North,360,0.0,0.0,99,0.00,CLR,,0.00,WeatherDisplay:10.37,2015-08-28 10:26:00,
2015-08-28 06:31:00,70.6,70.3,30.04,North,360,0.0,0.0,99,0.00,CLR,,0.00,WeatherDisplay:10.37,2015-08-28 10:31:00,
2015-08-28 06:36:00,70.6,70.3,30.04,North,360,0.0,0.0,99,0.00,CLR,,0.00,WeatherDisplay:10.37,2015-08-28 10:36:00,
2015-08-28 06:41:00,70.8,70.5,30.04,North,360,0.0,0.0,99,0.00,CLR,,0.00,WeatherDisplay:10.37,2015-08-28 10:41:00,
2015-08-28 06:46:00,70.8,70.5,30.04,North,360,0.0,0.0,99,0.00,CLR,,0.00,WeatherDisplay:10.37,2015-08-28 10:46:00,
2015-08-28 06:51:00,70.8,70.5,30.04,North,360,2.3,2.3,99,0.00,CLR,,0.00,WeatherDisplay:10.37,2015-08-28 10:51:00,
2015-08-28 06:56:00,70.8,70.5,30.04,North,360,1.2,0.0,99,0.00,CLR,,0.00,WeatherDisplay:10.37,2015-08-28 10:56:00,
2015-08-28 07:01:00,70.5,70.2,30.04,North,360,0.0,0.0,99,0.00,CLR,,0.00,WeatherDisplay:10.37,2015-08-28 11:01:00,
2015-08-28 07:06:00,70.0,69.7,30.04,North,360,0.0,0.0,99,0.00,CLR,,0.00,WeatherDisplay:10.37,2015-08-28 11:06:00,
2015-08-28 07:11:00,69.8,69.5,30.04,North,360,0.0,0.0,99,0.00,CLR,,0.00,WeatherDisplay:10.37,2015-08-28 11:11:00,
2015-08-28 07:16:00,70.2,69.9,30.04,North,360,2.3,2.3,99,0.00,CLR,,0.00,WeatherDisplay:10.37,2015-08-28 11:16:00,
2015-08-28 07:21:00,70.1,69.8,30.04,North,360,2.3,2.3,99,0.00,CLR,,0.00,WeatherDisplay:10.37,2015-08-28 11:21:00,
2015-08-28 07:26:00,70.2,69.9,30.05,North,360,2.3,2.3,99,0.00,CLR,,0.00,WeatherDisplay:10.37,2015-08-28 11:26:00,
2015-08-28 07:31:00,70.5,70.2,30.05,North,360,2.3,2.3,99,0.00,CLR,,0.00,WeatherDisplay:10.37,2015-08-28 11:31:00,
2015-08-28 07:36:00,70.7,70.4,30.05,North,360,2.3,2.3,99,0.00,CLR,,0.00,WeatherDisplay:10.37,2015-08-28 11:36:00,
2015-08-28 07:41:00,70.8,70.5,30.06,North,360,2.3,2.3,99,0.00,CLR,,0.00,WeatherDisplay:10.37,2015-08-28 11:41:00,
2015-08-28 07:46:00,71.1,70.8,30.06,North,360,2.3,2.3,99,0.00,CLR,,0.00,WeatherDisplay:10.37,2015-08-28 11:46:00,
2015-08-28 07:51:00,71.1,70.8,30.06,North,360,0.0,0.0,99,0.00,CLR,,0.00,WeatherDisplay:10.37,2015-08-28 11:51:00,
2015-08-28 07:56:00,71.2,70.9,30.07,North,360,0.0,0.0,99,0.00,CLR,,0.00,WeatherDisplay:10.37,2015-08-28 11:56:00,
2015-08-28 08:01:00,71.4,71.1,30.08,North,360,2.3,2.3,99,0.00,CLR,,0.00,WeatherDisplay:10.37,2015-08-28 12:01:00,
2015-08-28 08:06:00,71.7,71.4,30.08,North,360,2.3,2.3,99,0.00,CLR,,0.00,WeatherDisplay:10.37,2015-08-28 12:06:00,
2015-08-28 08:11:00,72.0,71.7,30.08,North,360,1.0,1.0,99,0.00,CLR,,0.00,WeatherDisplay:10.37,2015-08-28 12:11:00,
2015-08-28 08:16:00,72.5,72.2,30.08,NNE,28,2.3,2.3,99,0.00,CLR,,0.00,WeatherDisplay:10.37,2015-08-28 12:16:00,
2015-08-28 08:21:00,73.2,72.9,30.08,NE,45,2.3,2.3,99,0.00,CLR,,0.00,WeatherDisplay:10.37,2015-08-28 12:21:00,
2015-08-28 08:26:00,73.7,73.4,30.08,NE,45,2.3,2.3,99,0.00,CLR,,0.00,WeatherDisplay:10.37,2015-08-28 12:26:00,
2015-08-28 08:31:00,74.1,73.8,30.09,NE,55,2.3,2.3,99,0.00,CLR,,0.00,WeatherDisplay:10.37,2015-08-28 12:31:00,
2015-08-28 08:36:00,74.4,74.1,30.10,ENE,66,2.3,2.3,99,0.00,CLR,,0.00,WeatherDisplay:10.37,2015-08-28 12:36:00,
2015-08-28 08:41:00,75.1,74.8,30.10,ENE,67,2.3,2.3,99,0.00,CLR,,0.00,WeatherDisplay:10.37,2015-08-28 12:41:00,
2015-08-28 08:46:00,75.6,75.3,30.10,ENE,67,2.3,2.3,99,0.00,CLR,,0.00,WeatherDisplay:10.37,2015-08-28 12:46:00,
2015-08-28 08:51:00,75.7,75.4,30.11,ENE,67,2.3,2.3,99,0.00,CLR,,0.00,WeatherDisplay:10.37,2015-08-28 12:51:00,
2015-08-28 08:56:00,76.1,76.1,30.12,SE,128,2.3,2.3,100,0.00,CLR,,0.00,WeatherDisplay:10.37,2015-08-28 12:56:00,
2015-08-28 09:01:00,76.5,76.5,30.12,SE,145,1.2,1.2,100,0.00,SCT,,0.00,WeatherDisplay:10.37,2015-08-28 13:01:00,
2015-08-28 09:06:00,76.8,76.8,30.12,SE,134,2.3,2.3,100,0.00,SCT,,0.00,WeatherDisplay:10.37,2015-08-28 13:06:00,
2015-08-28 09:11:00,77.2,77.2,30.12,SE,133,2.3,2.3,100,0.00,SCT,,0.00,WeatherDisplay:10.37,2015-08-28 13:11:00,
2015-08-28 09:16:00,77.7,77.4,30.12,SE,137,2.3,2.3,99,0.00,SCT,,0.00,WeatherDisplay:10.37,2015-08-28 13:16:00,
2015-08-28 09:21:00,78.2,77.9,30.12,SE,142,2.3,2.3,99,0.00,SCT,,0.00,WeatherDisplay:10.37,2015-08-28 13:21:00,
2015-08-28 09:26:00,78.6,77.4,30.12,SE,131,3.5,3.5,96,0.00,SCT,,0.00,WeatherDisplay:10.37,2015-08-28 13:26:00,
2015-08-28 09:31:00,79.1,76.9,30.12,SE,139,3.5,3.5,93,0.00,SCT,,0.00,WeatherDisplay:10.37,2015-08-28 13:31:00,
2015-08-28 09:36:00,80.0,78.1,30.12,SE,131,3.5,3.5,94,0.00,SCT,,0.00,WeatherDisplay:10.37,2015-08-28 13:36:00,
2015-08-28 09:41:00,80.5,76.6,30.12,ESE,116,4.6,4.6,88,0.00,SCT,,0.00,WeatherDisplay:10.37,2015-08-28 13:41:00,
2015-08-28 09:46:00,81.5,78.0,30.13,ESE,116,2.3,2.3,89,0.00,SCT,,0.00,WeatherDisplay:10.37,2015-08-28 13:46:00,
2015-08-28 09:51:00,82.0,76.3,30.13,ESE,115,3.5,3.5,83,0.00,SCT,,0.00,WeatherDisplay:10.37,2015-08-28 13:51:00,
2015-08-28 09:57:00,82.4,76.4,30.13,ESE,116,4.6,4.6,82,0.00,SCT,,0.00,WeatherDisplay:10.37,2015-08-28 13:57:00,
2015-08-28 10:02:00,82.5,76.5,30.13,SE,140,3.5,3.5,82,0.00,OVC,,0.00,WeatherDisplay:10.37,2015-08-28 14:02:00,
2015-08-28 10:07:00,82.8,76.8,30.13,ESE,107,2.3,2.3,82,0.00,OVC,,0.00,WeatherDisplay:10.37,2015-08-28 14:07:00,
2015-08-28 10:12:00,82.7,76.3,30.13,East,98,5.8,5.8,81,0.00,OVC,,0.00,WeatherDisplay:10.37,2015-08-28 14:12:00,
2015-08-28 10:17:00,82.5,75.0,30.13,ESE,123,3.5,3.5,78,0.00,OVC,,0.00,WeatherDisplay:10.37,2015-08-28 14:17:00,
2015-08-28 10:22:00,82.7,75.2,30.12,SE,126,4.0,4.0,78,0.00,OVC,,0.00,WeatherDisplay:10.37,2015-08-28 14:22:00,
2015-08-28 10:27:00,82.8,76.0,30.13,SE,137,3.5,3.5,80,0.00,OVC,,0.00,WeatherDisplay:10.37,2015-08-28 14:27:00,
2015-08-28 10:32:00,83.4,74.7,30.13,SSE,147,4.6,4.6,75,0.00,OVC,,0.00,WeatherDisplay:10.37,2015-08-28 14:32:00,
2015-08-28 10:37:00,84.5,76.1,30.14,SSE,159,2.3,2.3,76,0.00,OVC,,0.00,WeatherDisplay:10.37,2015-08-28 14:37:00,
2015-08-28 10:42:00,84.8,73.9,30.14,SSE,158,3.5,3.5,70,0.00,OVC,,0.00,WeatherDisplay:10.37,2015-08-28 14:42:00,
2015-08-28 10:47:00,85.2,75.2,30.15,SE,144,3.5,3.5,72,0.00,OVC,,0.00,WeatherDisplay:10.37,2015-08-28 14:47:00,
2015-08-28 10:52:00,86.1,75.6,30.15,SSE,164,3.5,3.5,71,0.00,OVC,,0.00,WeatherDisplay:10.37,2015-08-28 14:52:00,
2015-08-28 10:57:00,85.1,72.9,30.15,SSE,168,3.5,3.5,67,0.00,OVC,,0.00,WeatherDisplay:10.37,2015-08-28 14:57:00,
2015-08-28 11:02:00,85.1,74.2,30.14,SSE,162,4.6,4.6,70,0.00,CLR,,0.00,WeatherDisplay:10.37,2015-08-28 15:02:00,
2015-08-28 11:07:00,85.0,75.0,30.14,SSE,163,3.5,3.5,72,0.00,CLR,,0.00,WeatherDisplay:10.37,2015-08-28 15:07:00,
2015-08-28 11:12:00,85.4,74.9,30.13,SSE,160,3.5,3.5,71,0.00,CLR,,0.00,WeatherDisplay:10.37,2015-08-28 15:12:00,
2015-08-28 11:17:00,85.8,74.9,30.13,SSE,151,6.9,6.9,70,0.00,CLR,,0.00,WeatherDisplay:10.37,2015-08-28 15:17:00,
2015-08-28 11:22:00,85.7,74.8,30.13,SE,143,3.0,3.0,70,0.00,CLR,,0.00,WeatherDisplay:10.37,2015-08-28 15:22:00,
2015-08-28 11:27:00,85.8,74.5,30.13,SE,128,2.3,2.3,69,0.00,CLR,,0.00,WeatherDisplay:10.37,2015-08-28 15:27:00,
2015-08-28 11:32:00,86.5,74.3,30.13,East,96,2.3,2.3,67,0.00,CLR,,0.00,WeatherDisplay:10.37,2015-08-28 15:32:00,
2015-08-28 11:37:00,86.8,74.1,30.14,ESE,104,2.3,2.3,66,0.00,CLR,,0.00,WeatherDisplay:10.37,2015-08-28 15:37:00,
2015-08-28 11:42:00,87.7,74.5,30.14,SE,124,4.0,4.0,65,0.00,CLR,,0.00,WeatherDisplay:10.37,2015-08-28 15:42:00,
2015-08-28 11:47:00,88.6,73.4,30.14,WSW,240,1.2,1.2,61,0.00,CLR,,0.00,WeatherDisplay:10.37,2015-08-28 15:47:00,
2015-08-28 11:52:00,87.9,74.2,30.14,South,177,2.3,2.3,64,0.00,CLR,,0.00,WeatherDisplay:10.37,2015-08-28 15:52:00,
2015-08-28 11:57:00,87.8,74.6,30.14,SE,143,2.3,2.3,65,0.00,CLR,,0.00,WeatherDisplay:10.37,2015-08-28 15:57:00,
2015-08-28 12:02:00,87.4,74.2,30.13,South,171,0.0,0.0,65,0.00,SCT,,0.00,WeatherDisplay:10.37,2015-08-28 16:02:00,
2015-08-28 12:07:00,86.9,74.6,30.13,South,180,2.0,2.0,67,0.00,SCT,,0.00,WeatherDisplay:10.37,2015-08-28 16:07:00,
2015-08-28 12:12:00,86.4,75.5,30.13,South,179,2.3,2.3,70,0.00,SCT,,0.00,WeatherDisplay:10.37,2015-08-28 16:12:00,
2015-08-28 12:17:00,86.1,74.3,30.12,SE,130,2.3,2.3,68,0.00,SCT,,0.00,WeatherDisplay:10.37,2015-08-28 16:17:00,
2015-08-28 12:27:00,86.8,74.5,30.12,ESE,102,2.3,2.3,67,0.00,SCT,,0.00,WeatherDisplay:10.37,2015-08-28 16:27:00,
2015-08-28 12:32:00,87.5,74.3,30.12,ENE,60,3.5,3.5,65,0.00,SCT,,0.00,WeatherDisplay:10.37,2015-08-28 16:32:00,
2015-08-28 12:37:00,87.6,75.3,30.13,North,7,3.0,3.0,67,0.00,SCT,,0.00,WeatherDisplay:10.37,2015-08-28 16:37:00,
2015-08-28 12:42:00,87.6,74.4,30.13,North,9,2.3,2.3,65,0.00,SCT,,0.00,WeatherDisplay:10.37,2015-08-28 16:42:00,
2015-08-28 12:47:00,87.8,74.6,30.13,NNE,27,2.3,2.3,65,0.00,SCT,,0.00,WeatherDisplay:10.37,2015-08-28 16:47:00,
2015-08-28 12:52:00,87.8,74.6,30.12,NNW,343,3.5,3.5,65,0.00,SCT,,0.00,WeatherDisplay:10.37,2015-08-28 16:52:00,
2015-08-28 12:57:00,87.6,74.9,30.12,North,355,5.8,5.8,66,0.00,SCT,,0.00,WeatherDisplay:10.37,2015-08-28 16:57:00,
2015-08-28 13:02:00,87.5,73.4,30.12,North,359,8.0,8.0,63,0.00,CLR,,0.00,WeatherDisplay:10.37,2015-08-28 17:02:00,
2015-08-28 13:07:00,87.0,73.4,30.12,NNW,344,5.8,5.8,64,0.00,CLR,,0.00,WeatherDisplay:10.37,2015-08-28 17:07:00,
2015-08-28 13:12:00,86.7,73.5,30.12,NNW,342,3.5,3.5,65,0.00,CLR,,0.00,WeatherDisplay:10.37,2015-08-28 17:12:00,
2015-08-28 13:17:00,86.4,73.7,30.11,North,10,3.5,3.5,66,0.00,CLR,,0.00,WeatherDisplay:10.37,2015-08-28 17:17:00,
2015-08-28 13:22:00,86.6,73.0,30.11,NE,35,0.0,0.0,64,0.00,CLR,,0.00,WeatherDisplay:10.37,2015-08-28 17:22:00,
2015-08-28 13:27:00,86.3,73.2,30.10,NE,36,3.5,3.5,65,0.00,CLR,,0.00,WeatherDisplay:10.37,2015-08-28 17:27:00,
2015-08-28 13:32:00,86.1,73.0,30.10,NE,35,4.0,4.0,65,0.00,CLR,,0.00,WeatherDisplay:10.37,2015-08-28 17:32:00,
2015-08-28 13:37:00,85.5,74.2,30.10,NE,50,6.9,6.9,69,0.00,CLR,,0.00,WeatherDisplay:10.37,2015-08-28 17:37:00,
2015-08-28 13:42:00,84.8,73.5,30.10,NE,47,9.2,9.2,69,0.00,CLR,,0.00,WeatherDisplay:10.37,2015-08-28 17:42:00,
2015-08-28 13:47:00,83.8,75.8,30.09,NE,36,10.4,10.4,77,0.00,CLR,,0.00,WeatherDisplay:10.37,2015-08-28 17:47:00,
2015-08-28 13:52:00,83.3,75.7,30.09,NNE,30,11.5,11.5,78,0.00,CLR,,0.00,WeatherDisplay:10.37,2015-08-28 17:52:00,
2015-08-28 13:57:00,83.1,75.9,30.09,NNE,16,8.1,8.1,79,0.00,CLR,,0.00,WeatherDisplay:10.37,2015-08-28 17:57:00,
2015-08-28 14:02:00,83.3,76.1,30.09,NNE,14,11.5,11.5,79,0.00,CLR,,0.00,WeatherDisplay:10.37,2015-08-28 18:02:00,
2015-08-28 14:07:00,83.4,75.8,30.09,NNE,16,12.0,12.0,78,0.00,CLR,,0.00,WeatherDisplay:10.37,2015-08-28 18:07:00,
2015-08-28 14:12:00,83.3,75.4,30.08,North,9,10.4,10.4,77,0.00,CLR,,0.00,WeatherDisplay:10.37,2015-08-28 18:12:00,
2015-08-28 14:17:00,82.7,74.4,30.08,NNE,21,11.5,11.5,76,0.00,CLR,,0.00,WeatherDisplay:10.37,2015-08-28 18:17:00,
2015-08-28 14:22:00,81.3,71.8,30.08,NE,38,13.8,13.8,73,0.00,CLR,,0.00,WeatherDisplay:10.37,2015-08-28 18:22:00,
2015-08-28 14:27:00,80.7,72.1,30.08,NE,45,11.5,11.5,75,0.00,CLR,,0.00,WeatherDisplay:10.37,2015-08-28 18:27:00,
2015-08-28 14:32:00,79.1,71.7,30.08,NE,50,12.7,12.7,78,0.00,CLR,,0.00,WeatherDisplay:10.37,2015-08-28 18:32:00,
2015-08-28 14:37:00,77.5,73.7,30.08,NE,55,15.0,15.0,88,0.01,RA,,0.02,WeatherDisplay:10.37,2015-08-28 18:37:00,
2015-08-28 14:42:00,75.2,72.7,30.07,ENE,62,11.5,11.5,92,0.04,RA,,0.06,WeatherDisplay:10.37,2015-08-28 18:42:00,
2015-08-28 14:47:00,74.0,72.5,30.07,ENE,70,6.9,6.9,95,0.15,RA,,0.17,WeatherDisplay:10.37,2015-08-28 18:47:00,
2015-08-28 14:52:00,73.8,73.2,30.07,ENE,76,2.3,2.3,98,0.23,RA,,0.23,WeatherDisplay:10.37,2015-08-28 18:52:00,
2015-08-28 14:57:00,73.8,73.2,30.06,ENE,70,0.0,0.0,98,0.25,RA,,0.26,WeatherDisplay:10.37,2015-08-28 18:57:00,
2015-08-28 15:02:00,74.0,73.7,30.06,NNE,27,4.0,4.2,99,0.28,RA,,0.28,WeatherDisplay:10.37,2015-08-28 19:02:00,
2015-08-28 15:07:00,74.1,73.8,30.06,SW,234,5.8,5.8,99,0.28,RA,,0.28,WeatherDisplay:10.37,2015-08-28 19:07:00,
2015-08-28 15:12:00,74.0,73.7,30.07,SW,232,3.5,3.5,99,0.28,BKN,,0.28,WeatherDisplay:10.37,2015-08-28 19:12:00,
2015-08-28 15:18:00,74.1,73.8,30.07,West,264,3.5,3.5,99,0.28,BKN,,0.28,WeatherDisplay:10.37,2015-08-28 19:18:00,
2015-08-28 15:22:00,74.1,73.8,30.07,WNW,299,5.0,5.0,99,0.28,BKN,,0.28,WeatherDisplay:10.37,2015-08-28 19:22:00,
2015-08-28 15:28:00,74.2,73.9,30.08,West,281,8.1,8.1,99,0.28,BKN,,0.28,WeatherDisplay:10.37,2015-08-28 19:28:00,
2015-08-28 15:33:00,73.9,73.6,30.08,West,269,17.0,17.0,99,0.28,BKN,,0.28,WeatherDisplay:10.37,2015-08-28 19:33:00,
2015-08-28 15:38:00,73.2,72.9,30.07,West,266,15.0,15.0,99,0.26,BKN,,0.28,WeatherDisplay:10.37,2015-08-28 19:38:00,
2015-08-28 15:43:00,72.0,71.7,30.06,West,263,10.4,10.4,99,0.23,RA,,0.29,WeatherDisplay:10.37,2015-08-28 19:43:00,
2015-08-28 15:48:00,71.1,70.8,30.06,WSW,257,9.2,9.2,99,0.12,RA,,0.30,WeatherDisplay:10.37,2015-08-28 19:48:00,
2015-08-28 15:53:00,70.6,70.3,30.06,WSW,238,11.5,11.5,99,0.08,RA,,0.31,WeatherDisplay:10.37,2015-08-28 19:53:00,
2015-08-28 15:58:00,70.6,70.3,30.07,SSW,208,9.2,9.2,99,0.06,RA,,0.32,WeatherDisplay:10.37,2015-08-28 19:58:00,